| time (UTC) | temp F | wind direction | speed knots | gust knots | rain 1hr in | rain 24hr in | rain mn in | humidity % | barometer mb |
| 20260504031208 | 51 | 26 | 0.9 | 4.3 | 0.00 | 0.00 | 0.00 | 67 | 1011.5 |
| 20260504030704 | 51 | 280 | 1.7 | 7.0 | 0.00 | 0.00 | 0.00 | 66 | 1011.8 |
| 20260504030201 | 51 | 66 | 2.6 | 8.7 | 0.00 | 0.00 | 0.00 | 66 | 1011.8 |
| 20260504025657 | 51 | 32 | 2.6 | 2.6 | 0.00 | 0.00 | 0.00 | 66 | 1011.9 |
| 20260504025154 | 51 | 48 | 3.5 | 5.2 | 0.00 | 0.00 | 0.00 | 66 | 1011.8 |
| 20260504024652 | 51 | 24 | 0.9 | 3.5 | 0.00 | 0.00 | 0.00 | 65 | 1012.0 |
| 20260504024148 | 51 | 29 | 3.5 | 3.5 | 0.00 | 0.00 | 0.00 | 66 | 1012.0 |
| 20260504023645 | 52 | 61 | 2.6 | 8.7 | 0.00 | 0.00 | 0.00 | 65 | 1011.9 |
| 20260504023141 | 52 | 21 | 6.1 | 8.7 | 0.00 | 0.00 | 0.00 | 64 | 1012.0 |
| 20260504022637 | 52 | 59 | 4.3 | 5.2 | 0.00 | 0.00 | 0.00 | 65 | 1012.2 |
| 20260504022133 | 52 | 334 | 0.9 | 4.3 | 0.00 | 0.00 | 0.00 | 64 | 1012.1 |
| 20260504021631 | 52 | 320 | 1.7 | 4.3 | 0.00 | 0.00 | 0.00 | 64 | 1011.8 |
| 20260504021127 | 52 | 356 | 1.7 | 2.6 | 0.00 | 0.00 | 0.00 | 64 | 1011.9 |
| 20260504020625 | 52 | 47 | 3.5 | 8.7 | 0.00 | 0.00 | 0.00 | 64 | 1011.9 |
| 20260504020120 | 52 | 28 | 4.3 | 7.0 | 0.00 | 0.00 | 0.00 | 64 | 1012.0 |
| 20260504015617 | 52 | 29 | 4.3 | 8.7 | 0.00 | 0.00 | 0.00 | 64 | 1012.0 |
| 20260504015114 | 52 | 15 | 0.0 | 7.0 | 0.00 | 0.00 | 0.00 | 65 | 1012.4 |
| 20260504014609 | 52 | 37 | 7.0 | 10.4 | 0.00 | 0.00 | 0.00 | 63 | 1012.3 |
| 20260504014107 | 52 | 4 | 6.1 | 8.7 | 0.00 | 0.00 | 0.00 | 63 | 1012.5 |
| 20260504013604 | 52 | 333 | 4.3 | 8.7 | 0.00 | 0.00 | 0.00 | 62 | 1012.4 |
| 20260504013101 | 52 | 346 | 3.5 | 10.4 | 0.00 | 0.00 | 0.00 | 62 | 1012.2 |
| 20260504012558 | 53 | 355 | 4.3 | 9.6 | 0.00 | 0.00 | 0.00 | 61 | 1012.3 |
| 20260504012056 | 53 | 331 | 2.6 | 8.7 | 0.00 | 0.00 | 0.00 | 61 | 1012.1 |
| 20260504011553 | 53 | 1 | 3.5 | 7.0 | 0.00 | 0.00 | 0.00 | 62 | 1012.1 |
| 20260504011049 | 53 | 14 | 7.0 | 7.0 | 0.00 | 0.00 | 0.00 | 61 | 1012.2 |
| 20260504010545 | 53 | 329 | 5.2 | 7.0 | 0.00 | 0.00 | 0.00 | 59 | 1011.9 |
| 20260504010041 | 53 | 337 | 1.7 | 3.5 | 0.00 | 0.00 | 0.00 | 58 | 1011.9 |
| 20260504005538 | 53 | 61 | 1.7 | 6.1 | 0.00 | 0.00 | 0.00 | 55 | 1011.9 |
| 20260504005035 | 53 | 347 | 1.7 | 3.5 | 0.00 | 0.00 | 0.00 | 54 | 1011.9 |
| 20260504004533 | 54 | 8 | 3.5 | 4.3 | 0.00 | 0.00 | 0.00 | 51 | 1011.4 |
| 20260504004030 | 54 | 356 | 3.5 | 4.3 | 0.00 | 0.00 | 0.00 | 51 | 1011.5 |
| 20260504003526 | 54 | 22 | 3.5 | 4.3 | 0.00 | 0.00 | 0.00 | 51 | 1011.5 |
| 20260504003023 | 55 | 21 | 3.5 | 5.2 | 0.00 | 0.00 | 0.00 | 51 | 1011.5 |
| 20260504002520 | 55 | 10 | 1.7 | 5.2 | 0.00 | 0.00 | 0.00 | 50 | 1011.6 |
| 20260504002017 | 56 | 354 | 2.6 | 6.1 | 0.00 | 0.00 | 0.00 | 48 | 1011.5 |
| 20260504001515 | 56 | 27 | 5.2 | 10.4 | 0.00 | 0.00 | 0.00 | 47 | 1011.5 |
| 20260504001011 | 56 | 14 | 4.3 | 7.8 | 0.00 | 0.00 | 0.00 | 47 | 1011.4 |
| 20260504000508 | 57 | 22 | 3.5 | 9.6 | 0.00 | 0.00 | 0.00 | 46 | 1011.5 |
| 20260504000005 | 57 | 327 | 3.5 | 7.8 | 0.00 | 0.00 | 0.00 | 45 | 1011.3 |
| 20260503235504 | 57 | 1 | 4.3 | 7.8 | 0.00 | 0.00 | 0.00 | 45 | 1011.5 |
| 20260503235000 | 57 | 25 | 7.0 | 8.7 | 0.00 | 0.00 | 0.00 | 45 | 1011.3 |
| 20260503234458 | 57 | 4 | 3.5 | 7.8 | 0.00 | 0.00 | 0.00 | 46 | 1011.7 |
| 20260503233956 | 58 | 27 | 6.1 | 7.8 | 0.00 | 0.00 | 0.00 | 44 | 1011.5 |
| 20260503233452 | 58 | 16 | 4.3 | 12.2 | 0.00 | 0.00 | 0.00 | 44 | 1011.5 |
| 20260503232948 | 58 | 344 | 5.2 | 9.6 | 0.00 | 0.00 | 0.00 | 44 | 1011.6 |
| 20260503232445 | 58 | 347 | 3.5 | 9.6 | 0.00 | 0.00 | 0.00 | 45 | 1011.6 |
| 20260503231943 | 58 | 34 | 7.0 | 10.4 | 0.00 | 0.00 | 0.00 | 46 | 1011.5 |
| 20260503231440 | 58 | 348 | 7.0 | 10.4 | 0.00 | 0.00 | 0.00 | 45 | 1011.6 |
| 20260503230937 | 58 | 12 | 4.3 | 11.3 | 0.00 | 0.00 | 0.00 | 42 | 1011.6 |
| 20260503230433 | 59 | 4 | 5.2 | 10.4 | 0.00 | 0.00 | 0.00 | 42 | 1011.7 |
| 20260503225931 | 59 | 351 | 6.1 | 7.8 | 0.00 | 0.00 | 0.00 | 44 | 1011.6 |
| 20260503225428 | 59 | 6 | 7.8 | 12.2 | 0.00 | 0.00 | 0.00 | 43 | 1011.7 |
| 20260503224923 | 60 | 24 | 5.2 | 10.4 | 0.00 | 0.00 | 0.00 | 43 | 1011.8 |
| 20260503224420 | 60 | 7 | 3.5 | 13.0 | 0.00 | 0.00 | 0.00 | 43 | 1011.8 |
| 20260503223918 | 60 | 350 | 7.0 | 11.3 | 0.00 | 0.00 | 0.00 | 44 | 1011.7 |
| 20260503223416 | 59 | 14 | 4.3 | 11.3 | 0.00 | 0.00 | 0.00 | 44 | 1011.7 |
| 20260503222916 | 60 | 12 | 6.1 | 7.8 | 0.00 | 0.00 | 0.00 | 45 | 1011.8 |
| 20260503222415 | 60 | 36 | 4.3 | 11.3 | 0.00 | 0.00 | 0.00 | 44 | 1011.9 |
| 20260503221913 | 60 | 22 | 5.2 | 11.3 | 0.00 | 0.00 | 0.00 | 44 | 1011.8 |
| 20260503221411 | 61 | 302 | 6.1 | 9.6 | 0.00 | 0.00 | 0.00 | 42 | 1011.8 |
| 20260503220907 | 60 | 4 | 8.7 | 12.2 | 0.00 | 0.00 | 0.00 | 42 | 1012.0 |
| 20260503220404 | 60 | 355 | 7.0 | 11.3 | 0.00 | 0.00 | 0.00 | 43 | 1011.9 |
| 20260503215901 | 59 | 352 | 6.1 | 9.6 | 0.00 | 0.00 | 0.00 | 44 | 1011.8 |
| 20260503215358 | 59 | 349 | 5.2 | 9.6 | 0.00 | 0.00 | 0.00 | 43 | 1011.9 |
| 20260503214855 | 59 | 317 | 6.1 | 7.8 | 0.00 | 0.00 | 0.00 | 44 | 1011.9 |
| 20260503214353 | 61 | 349 | 9.6 | 13.0 | 0.00 | 0.00 | 0.00 | 41 | 1011.9 |
| 20260503213850 | 62 | 321 | 6.1 | 8.7 | 0.00 | 0.00 | 0.00 | 43 | 1011.8 |
| 20260503213348 | 61 | 12 | 5.2 | 7.0 | 0.00 | 0.00 | 0.00 | 44 | 1012.0 |
| 20260503212844 | 61 | 356 | 9.6 | 13.0 | 0.00 | 0.00 | 0.00 | 41 | 1011.9 |
| 20260503212342 | 61 | 318 | 4.3 | 11.3 | 0.00 | 0.00 | 0.00 | 41 | 1011.9 |
| 20260503211839 | 61 | 330 | 4.3 | 15.6 | 0.00 | 0.00 | 0.00 | 41 | 1012.1 |
| 20260503211336 | 60 | 350 | 5.2 | 12.2 | 0.00 | 0.00 | 0.00 | 43 | 1012.0 |
| 20260503210831 | 60 | 337 | 5.2 | 12.2 | 0.00 | 0.00 | 0.00 | 42 | 1012.1 |
| 20260503210329 | 59 | 1 | 9.6 | 15.6 | 0.00 | 0.00 | 0.00 | 42 | 1012.1 |
| 20260503205823 | 59 | 350 | 7.0 | 11.3 | 0.00 | 0.00 | 0.00 | 46 | 1012.1 |
| 20260503205320 | 59 | 57 | 5.2 | 9.6 | 0.00 | 0.00 | 0.00 | 45 | 1012.0 |
| 20260503204817 | 60 | 16 | 6.1 | 9.6 | 0.00 | 0.00 | 0.00 | 45 | 1011.9 |
| 20260503204315 | 60 | 22 | 7.8 | 11.3 | 0.00 | 0.00 | 0.00 | 45 | 1012.2 |
| 20260503203812 | 60 | 16 | 4.3 | 9.6 | 0.00 | 0.00 | 0.00 | 45 | 1012.1 |
| 20260503203309 | 60 | 12 | 8.7 | 13.0 | 0.00 | 0.00 | 0.00 | 45 | 1012.2 |
| 20260503202806 | 60 | 31 | 4.3 | 8.7 | 0.00 | 0.00 | 0.00 | 46 | 1012.2 |
| 20260503202304 | 59 | 15 | 5.2 | 14.8 | 0.00 | 0.00 | 0.00 | 44 | 1012.3 |
| 20260503201801 | 62 | 327 | 4.3 | 13.9 | 0.00 | 0.00 | 0.00 | 43 | 1012.4 |
| 20260503201258 | 62 | 359 | 6.1 | 9.6 | 0.00 | 0.00 | 0.00 | 42 | 1012.3 |
| 20260503200756 | 61 | 3 | 6.1 | 10.4 | 0.00 | 0.00 | 0.00 | 43 | 1012.3 |
| 20260503200251 | 60 | 2 | 4.3 | 11.3 | 0.00 | 0.00 | 0.00 | 43 | 1012.4 |
| 20260503195749 | 60 | 5 | 6.1 | 9.6 | 0.00 | 0.00 | 0.00 | 44 | 1012.5 |
| 20260503195245 | 61 | 7 | 7.8 | 13.0 | 0.00 | 0.00 | 0.00 | 42 | 1012.4 |
| 20260503194743 | 62 | 23 | 4.3 | 12.2 | 0.00 | 0.00 | 0.00 | 44 | 1012.7 |
| 20260503194238 | 63 | 14 | 7.8 | 13.0 | 0.00 | 0.00 | 0.00 | 43 | 1012.6 |
| 20260503193735 | 61 | 19 | 7.0 | 9.6 | 0.00 | 0.00 | 0.00 | 42 | 1012.7 |
| 20260503193231 | 62 | 4 | 4.3 | 9.6 | 0.00 | 0.00 | 0.00 | 42 | 1013.0 |
| 20260503192727 | 62 | 345 | 4.3 | 13.0 | 0.00 | 0.00 | 0.00 | 43 | 1013.0 |
| 20260503192222 | 61 | 24 | 7.0 | 13.9 | 0.00 | 0.00 | 0.00 | 42 | 1013.0 |
| 20260503191719 | 62 | 297 | 2.6 | 14.8 | 0.00 | 0.00 | 0.00 | 43 | 1013.0 |
| 20260503191216 | 60 | 12 | 6.1 | 7.8 | 0.00 | 0.00 | 0.00 | 42 | 1013.4 |
| 20260503190713 | 59 | 0 | 10.4 | 13.9 | 0.00 | 0.00 | 0.00 | 41 | 1013.3 |
| 20260503190210 | 61 | 10 | 4.3 | 8.7 | 0.00 | 0.00 | 0.00 | 43 | 1013.3 |
| 20260503185707 | 61 | 6 | 9.6 | 14.8 | 0.00 | 0.00 | 0.00 | 44 | 1013.5 |
| 20260503185202 | 60 | 19 | 8.7 | 12.2 | 0.00 | 0.00 | 0.00 | 46 | 1013.5 |
| 20260503184657 | 60 | 353 | 5.2 | 10.4 | 0.00 | 0.00 | 0.00 | 45 | 1013.4 |
| 20260503184154 | 60 | 354 | 7.8 | 10.4 | 0.00 | 0.00 | 0.00 | 44 | 1013.6 |
| 20260503183650 | 61 | 339 | 4.3 | 8.7 | 0.00 | 0.00 | 0.00 | 48 | 1013.7 |
| 20260503183148 | 62 | 1 | 7.8 | 11.3 | 0.00 | 0.00 | 0.00 | 43 | 1013.7 |
| 20260503182645 | 61 | 26 | 7.0 | 12.2 | 0.00 | 0.00 | 0.00 | 45 | 1013.7 |
| 20260503182144 | 60 | 341 | 4.3 | 13.0 | 0.00 | 0.00 | 0.00 | 46 | 1013.5 |
| 20260503181640 | 61 | 3 | 9.6 | 12.2 | 0.00 | 0.00 | 0.00 | 42 | 1013.7 |
| 20260503181137 | 60 | 26 | 7.0 | 8.7 | 0.00 | 0.00 | 0.00 | 44 | 1013.8 |
| 20260503180634 | 62 | 342 | 2.6 | 10.4 | 0.00 | 0.00 | 0.00 | 47 | 1014.0 |
| 20260503180132 | 60 | 346 | 3.5 | 12.2 | 0.00 | 0.00 | 0.00 | 46 | 1014.1 |
| 20260503175629 | 61 | 301 | 6.1 | 12.2 | 0.00 | 0.00 | 0.00 | 45 | 1014.0 |
| 20260503175126 | 61 | 17 | 6.1 | 12.2 | 0.00 | 0.00 | 0.00 | 42 | 1014.2 |
| 20260503174622 | 61 | 313 | 6.1 | 9.6 | 0.00 | 0.00 | 0.00 | 47 | 1014.1 |
| 20260503174120 | 61 | 349 | 9.6 | 10.4 | 0.00 | 0.00 | 0.00 | 47 | 1014.3 |
| 20260503173614 | 61 | 316 | 3.5 | 6.1 | 0.00 | 0.00 | 0.00 | 47 | 1014.1 |
| 20260503173111 | 60 | 0 | 9.6 | 11.3 | 0.00 | 0.00 | 0.00 | 47 | 1014.6 |
| 20260503172608 | 59 | 22 | 7.8 | 11.3 | 0.00 | 0.00 | 0.00 | 45 | 1014.4 |
| 20260503172106 | 61 | 326 | 4.3 | 5.2 | 0.00 | 0.00 | 0.00 | 50 | 1014.4 |
| 20260503171602 | 60 | 26 | 4.3 | 9.6 | 0.00 | 0.00 | 0.00 | 47 | 1014.6 |
| 20260503171059 | 59 | 346 | 3.5 | 12.2 | 0.00 | 0.00 | 0.00 | 47 | 1014.8 |
| 20260503170555 | 60 | 331 | 6.1 | 8.7 | 0.00 | 0.00 | 0.00 | 51 | 1014.6 |
| 20260503150948 | 55 | 348 | 1.7 | 8.7 | 0.00 | 0.00 | 0.00 | 54 | 1015.8 |
| 20260503150445 | 56 | 305 | 2.6 | 6.1 | 0.00 | 0.00 | 0.00 | 56 | 1015.9 |
| 20260503131337 | 48 | 42 | 5.2 | 7.8 | 0.00 | 0.00 | 0.00 | 60 | 1016.3 |
| 20260503130835 | 47 | 37 | 4.3 | 8.7 | 0.00 | 0.00 | 0.00 | 59 | 1016.5 |
| 20260503130333 | 46 | 327 | 1.7 | 7.8 | 0.00 | 0.00 | 0.00 | 60 | 1016.6 |
| 20260503110726 | 36 | 38 | 2.6 | 4.3 | 0.00 | 0.00 | 0.00 | 81 | 1016.5 |
| 20260503110223 | 36 | 25 | 3.5 | 5.2 | 0.00 | 0.00 | 0.00 | 81 | 1016.2 |
| 20260503100149 | 34 | 39 | 1.7 | 3.5 | 0.00 | 0.00 | 0.00 | 84 | 1015.8 |
| 20260503090109 | 35 | 32 | 2.6 | 2.6 | 0.00 | 0.00 | 0.00 | 84 | 1015.9 |
| 20260503081544 | 35 | 34 | 0.9 | 3.5 | 0.00 | 0.00 | 0.00 | 84 | 1016.0 |
| 20260503081042 | 35 | 39 | 0.9 | 2.6 | 0.00 | 0.00 | 0.00 | 84 | 1016.0 |
| 20260503080537 | 36 | 18 | 0.9 | 4.3 | 0.00 | 0.00 | 0.00 | 84 | 1016.3 |
| 20260503072512 | 36 | 35 | 2.6 | 3.5 | 0.00 | 0.00 | 0.00 | 86 | 1016.1 |
| 20260503072009 | 36 | 33 | 3.5 | 3.5 | 0.00 | 0.00 | 0.00 | 86 | 1016.0 |
| 20260503071506 | 36 | 33 | 0.9 | 3.5 | 0.00 | 0.00 | 0.00 | 86 | 1016.0 |
| 20260503071002 | 36 | 23 | 1.7 | 3.5 | 0.00 | 0.00 | 0.00 | 85 | 1016.2 |
| 20260503070459 | 36 | 51 | 1.7 | 4.3 | 0.00 | 0.00 | 0.00 | 86 | 1016.0 |
| 20260503054917 | 37 | 48 | 1.7 | 2.6 | 0.00 | 0.00 | 0.00 | 88 | 1016.4 |
| 20260503054413 | 37 | 33 | 1.7 | 2.6 | 0.00 | 0.00 | 0.00 | 88 | 1016.3 |
| 20260503053911 | 37 | 39 | 1.7 | 3.5 | 0.00 | 0.00 | 0.00 | 87 | 1016.6 |
| 20260503053409 | 37 | 64 | 0.9 | 3.5 | 0.00 | 0.00 | 0.00 | 87 | 1016.4 |
| 20260503052905 | 37 | 42 | 1.7 | 3.5 | 0.00 | 0.00 | 0.00 | 86 | 1016.3 |
| 20260503052402 | 38 | 56 | 1.7 | 2.6 | 0.00 | 0.00 | 0.00 | 86 | 1016.3 |
| 20260503051858 | 38 | 38 | 1.7 | 3.5 | 0.00 | 0.00 | 0.00 | 86 | 1016.4 |
| 20260503051354 | 38 | 54 | 3.5 | 3.5 | 0.00 | 0.00 | 0.00 | 86 | 1016.5 |
| 20260503050852 | 38 | 66 | 2.6 | 3.5 | 0.00 | 0.00 | 0.00 | 86 | 1016.2 |
| 20260503050348 | 38 | 3 | 1.7 | 3.5 | 0.00 | 0.00 | 0.00 | 86 | 1016.4 |
| 20260503045845 | 38 | 45 | 1.7 | 3.5 | 0.00 | 0.00 | 0.00 | 85 | 1016.3 |
| 20260503045343 | 38 | 42 | 1.7 | 2.6 | 0.00 | 0.00 | 0.00 | 85 | 1016.6 |
| 20260503044839 | 38 | 35 | 1.7 | 2.6 | 0.00 | 0.00 | 0.00 | 84 | 1016.7 |
| 20260503044336 | 38 | 63 | 1.7 | 3.5 | 0.00 | 0.00 | 0.00 | 84 | 1016.4 |
| 20260503043833 | 38 | 59 | 1.7 | 3.5 | 0.00 | 0.00 | 0.00 | 83 | 1016.7 |
| 20260503043330 | 38 | 53 | 2.6 | 3.5 | 0.00 | 0.00 | 0.00 | 83 | 1016.3 |
| 20260503042826 | 39 | 55 | 1.7 | 2.6 | 0.00 | 0.00 | 0.00 | 82 | 1016.5 |
| 20260503042323 | 39 | 55 | 1.7 | 2.6 | 0.00 | 0.00 | 0.00 | 81 | 1016.5 |
| 20260503041819 | 39 | 43 | 2.6 | 3.5 | 0.00 | 0.00 | 0.00 | 80 | 1016.5 |
| 20260503041317 | 40 | 55 | 2.6 | 4.3 | 0.00 | 0.00 | 0.00 | 79 | 1016.5 |
| 20260503040815 | 40 | 39 | 2.6 | 3.5 | 0.00 | 0.00 | 0.00 | 79 | 1016.5 |
| 20260503040312 | 40 | 37 | 2.6 | 4.3 | 0.00 | 0.00 | 0.00 | 78 | 1016.7 |
| 20260503035809 | 40 | 48 | 2.6 | 4.3 | 0.00 | 0.08 | 0.08 | 78 | 1016.7 |
| 20260503035306 | 41 | 47 | 1.7 | 5.2 | 0.00 | 0.08 | 0.08 | 77 | 1016.6 |
| 20260503034803 | 41 | 55 | 3.5 | 3.5 | 0.00 | 0.08 | 0.08 | 77 | 1016.7 |
| 20260503034300 | 41 | 35 | 4.3 | 5.2 | 0.00 | 0.08 | 0.08 | 76 | 1016.7 |
| 20260503033757 | 41 | 31 | 3.5 | 4.3 | 0.00 | 0.08 | 0.08 | 76 | 1016.6 |
| 20260503033255 | 42 | 56 | 3.5 | 5.2 | 0.00 | 0.08 | 0.08 | 75 | 1016.7 |
| 20260503032753 | 42 | 23 | 1.7 | 4.3 | 0.00 | 0.08 | 0.08 | 76 | 1016.6 |
| 20260503032251 | 42 | 47 | 1.7 | 6.1 | 0.00 | 0.08 | 0.08 | 76 | 1016.8 |
| 20260503031748 | 42 | 38 | 1.7 | 5.2 | 0.00 | 0.08 | 0.08 | 75 | 1016.8 |